Location: Laterina
(43.5167°N, 11.7167°E)
Time: 16:40:37
(UTC+00:00)

SJ-6B - Pass Details

Date: 24 September 2020
Orbit: 511 x 580 km, 97.6° (Epoch: 25 October)

Event Time Altitude Azimuth Distance (km) Brightness Sun altitude
Exits shadow 18:48:19 53° 98° (E) 637 2.7 -19.1°
Maximum altitude 18:48:39 56° 74° (ENE) 620 2.7 -19.1°
Drops below altitude 10° 18:52:23 10° 356° (N) 1,766 5.7 -19.8°
Sets 18:54:32 0° 352° (N) 2,669 6.7 -20.1°
